Regional Weather Roundup
Issued by NWS

Home | Current Version | Previous Version | Text Only | Print | Product List | Glossary Off
Versions: 1 2 3 4 5 6 7 8 9 10 11 12 13 14 15 16 17 18 19 20 21 22 23 24 25 26 27 28 29 30 31 32 33 34 35 36 37 38 39 40 41 42 43 44 45 46 47 48 49 50

000
ASUS45 KSLC 261510
RWRUT

UTAH REGIONAL WEATHER ROUNDUP
NATIONAL WEATHER SERVICE SALT LAKE CITY UT
900 AM MDT TUE MAY 26 2015

UTZ001>011-023>025-261600-

NORTHERN UTAH

CITY           SKY/WX    TMP DP  RH WIND       PRES   REMARKS
BRIGHAM CITY   CLOUDY    56  50  80 CALM      30.03S
HILL AFB       NOT AVBL
LOGAN          CLOUDY    52  46  80 CALM      30.03R
OGDEN          RAIN      52  51  97 CALM      30.05R FOG
PROVO AIRPORT  CLOUDY    55  46  71 SE7       30.07R
SALT LAKE CITY CLOUDY    60  48  64 S6        30.03R
VERNAL         PTSUNNY   54  43  66 E5        30.08S
WENDOVER       PTSUNNY   55  48  76 CALM      30.02R
HEBER CITY     DRIZZLE   46  43  87 E3        30.10S
WEST JORDAN    CLOUDY    57  52  82 S13       30.05R

$$

UTZ012>022-026-027-261600-

SOUTHERN/CENTRAL UTAH

CITY           SKY/WX    TMP DP  RH WIND       PRES   REMARKS
BLANDING       MOSUNNY   53  46  75 SE6       30.21S
BRYCE CANYON   LGT RAIN  46  41  82 N9        30.20R
CEDAR CITY     CLOUDY    51  45  79 SE10      30.10F
DELTA          CLOUDY    55  45  69 S12       30.08S
HANKSVILLE     CLOUDY    59  46  63 N5        30.07S
MILFORD        CLOUDY    54  49  83 SW14      30.08R
MOAB/CYNLANDS  SUNNY     62  43  49 SE9       30.04R
PRICE          CLOUDY    54  42  64 CALM      30.08R
ST GEORGE      CLOUDY    68  45  42 SE3       30.03S
KANAB          PTSUNNY   59  45  58 NW6       30.13R

$$

REGIONAL REPORTS     COLORADO/ARIZONA

CITY           SKY/WX    TMP DP  RH WIND       PRES   REMARKS
CRAIG, CO      CLOUDY    51  43  74 NE8       30.12R
GRAND JUNCTION PTSUNNY   58  44  60 SE3       30.07S
RIFLE            N/A     51  45  79 CALM      30.13R
MONTROSE       MOSUNNY   58  41  53 W5        30.13S
CORTEZ         MOSUNNY   53  44  71 CALM      30.15R
PAGE, AZ       MOSUNNY   65  44  46 CALM      30.06R
GRAND CANYON   MOSUNNY   56  38  50 SW8       30.18R
KINGMAN        SUNNY     72  33  24 VRB5      30.02R
FLAGSTAFF      SUNNY     53  37  54 S3        30.20S

$$

REGIONAL REPORTS    NEVADA/IDAHO/WYOMING

CITY           SKY/WX    TMP DP  RH WIND       PRES   REMARKS
LAS VEGAS, NV  MOSUNNY   76  41  28 S6        29.90R
ELY            PTSUNNY   52  46  80 S5        30.11S
ELKO           PTSUNNY   52  46  80 CALM      30.05S
POCATELLO, ID  PTSUNNY   56  51  84 CALM      30.02S
BURLEY         CLOUDY    56  49  77 SW5       29.99R
EVANSTON, WY   LGT RAIN  43  41  93 N5        30.12R FOG
ROCK SPRINGS   MOSUNNY   50  41  71 W6        30.10S
KEMMERER       CLOUDY    43  39  87 N7        30.12F

$$



USA.gov is the U.S. government's official web portal to all federal, state and local government web resources and services.